User: anonymous   Login
Location: Gloden
(48.4833°N, 15.3167°E)
Time: 08:02:26
(UTC+00:00)
Language:

ITUPSAT 1 - Orbit

View from above orbital plane
View from above orbital plane
View from above satellite
View from above satellite

Ground track
Ground track

The orbit data is extracted from the following two-line orbital elements,

1 35935U 09051E   21128.80248790  .00000114  00000-0  37373-4 0  9995
2 35935  98.6128 329.5492 0007260 216.5904 143.4797 14.55717666617004
Epoch (UTC): 08 May 2021 19:15:34
Eccentricity: 0.0007260
inclination: 98.6128°
perigee height: 702 km
apogee height: 712 km
right ascension of ascending node: 329.5492°
argument of perigee: 216.5904°
revolutions per day: 14.55717666
mean anomaly at epoch: 143.4797°
orbit number at epoch: 61700

The dashed part of the orbit path shows where the satellite is in the earth's shadow,  

DLR